EN

Hourly Weather Bulanbaybauly

Today, 15 April, Thursday

Time Temperature Precipitation Wind Pressure Humidity
00:00 +12°C° 0 mm 7 mps 714 mmHg 28%
01:00 +11°C° 0 mm 6 mps 714 mmHg 30%
02:00 +11°C° 0 mm 6 mps 714 mmHg 32%
03:00 +10°C° 0.1 mm 5 mps 714 mmHg 38%
04:00 +11°C° 0.1 mm 4 mps 714 mmHg 44%
05:00 +11°C° 0 mm 3 mps 714 mmHg 55%
06:00 +11°C° 0.1 mm 3 mps 715 mmHg 53%
07:00 +12°C° 0.1 mm 3 mps 715 mmHg 51%
08:00 +13°C° 0.1 mm 3 mps 715 mmHg 50%
09:00 +14°C° 0 mm 4 mps 716 mmHg 46%
10:00 +16°C° 0 mm 5 mps 716 mmHg 43%
11:00 +18°C° 0 mm 7 mps 716 mmHg 40%
12:00 +18°C° 0 mm 7 mps 716 mmHg 37%
13:00 +20°C° 0 mm 6 mps 716 mmHg 34%
14:00 +21°C° 0 mm 6 mps 716 mmHg 31%
15:00 +21°C° 0 mm 6 mps 716 mmHg 32%
16:00 +21°C° 0 mm 6 mps 716 mmHg 32%
17:00 +20°C° 0 mm 5 mps 715 mmHg 33%
18:00 +19°C° 0.1 mm 4 mps 715 mmHg 37%
19:00 +18°C° 0.1 mm 3 mps 715 mmHg 41%
20:00 +17°C° 0.1 mm 2 mps 715 mmHg 45%
21:00 +16°C° 0.3 mm 2 mps 715 mmHg 50%
22:00 +16°C° 0.3 mm 3 mps 715 mmHg 54%
23:00 +14°C° 0.3 mm 3 mps 714 mmHg 58%

Tomorrow, 16 April, Friday

Time Temperature Precipitation Wind Pressure Humidity
00:00 +13°C° 0.2 mm 3 mps 714 mmHg 60%
01:00 +13°C° 0.2 mm 4 mps 714 mmHg 61%
02:00 +13°C° 0.2 mm 4 mps 714 mmHg 62%
03:00 +12°C° 0.1 mm 4 mps 714 mmHg 61%
04:00 +12°C° 0.1 mm 4 mps 714 mmHg 61%
05:00 +12°C° 0.1 mm 4 mps 714 mmHg 61%
06:00 +12°C° 0 mm 4 mps 714 mmHg 59%
07:00 +13°C° 0 mm 4 mps 714 mmHg 57%
08:00 +13°C° 0 mm 5 mps 715 mmHg 55%
09:00 +15°C° 0 mm 6 mps 715 mmHg 50%
10:00 +16°C° 0 mm 6 mps 715 mmHg 46%
11:00 +17°C° 0 mm 7 mps 716 mmHg 42%
12:00 +18°C° 0 mm 7 mps 716 mmHg 39%
13:00 +20°C° 0 mm 6 mps 716 mmHg 36%
14:00 +21°C° 0 mm 6 mps 716 mmHg 32%
15:00 +21°C° 0 mm 6 mps 716 mmHg 31%
16:00 +21°C° 0 mm 5 mps 716 mmHg 30%
17:00 +21°C° 0 mm 5 mps 716 mmHg 28%
18:00 +20°C° 0 mm 4 mps 716 mmHg 32%
19:00 +19°C° 0 mm 3 mps 716 mmHg 35%
20:00 +18°C° 0 mm 1 mps 716 mmHg 38%
21:00 +18°C° 0 mm 1 mps 716 mmHg 39%
22:00 +18°C° 0 mm 1 mps 716 mmHg 40%
23:00 +16°C° 0 mm 1 mps 716 mmHg 40%

Day after tomorrow, 17 April, Saturday

Time Temperature Precipitation Wind Pressure Humidity
00:00 +16°C° 0 mm 1 mps 716 mmHg 42%
01:00 +15°C° 0 mm 1 mps 716 mmHg 44%
02:00 +14°C° 0 mm 1 mps 715 mmHg 45%
03:00 +14°C° 0 mm 1 mps 716 mmHg 45%
04:00 +14°C° 0 mm 1 mps 716 mmHg 46%
05:00 +13°C° 0 mm 1 mps 716 mmHg 46%
06:00 +15°C° 0 mm 1 mps 716 mmHg 43%
07:00 +16°C° 0 mm 1 mps 717 mmHg 39%
08:00 +16°C° 0 mm 0 mps 717 mmHg 35%
09:00 +19°C° 0 mm 1 mps 718 mmHg 34%
10:00 +20°C° 0 mm 1 mps 718 mmHg 32%
11:00 +21°C° 0 mm 1 mps 718 mmHg 30%
12:00 +22°C° 0 mm 1 mps 718 mmHg 29%
13:00 +21°C° 0 mm 2 mps 718 mmHg 27%
14:00 +23°C° 0 mm 2 mps 718 mmHg 26%
15:00 +23°C° 0 mm 2 mps 718 mmHg 25%
16:00 +23°C° 0 mm 2 mps 718 mmHg 25%
17:00 +23°C° 0 mm 2 mps 718 mmHg 25%
18:00 +21°C° 0 mm 2 mps 718 mmHg 27%
19:00 +20°C° 0 mm 3 mps 718 mmHg 29%
20:00 +19°C° 0 mm 3 mps 718 mmHg 31%
21:00 +18°C° 0 mm 3 mps 718 mmHg 31%
22:00 +17°C° 0 mm 3 mps 718 mmHg 31%
23:00 +17°C° 0 mm 3 mps 718 mmHg 31%

18 April, Sunday

Time Temperature Precipitation Wind Pressure Humidity
00:00 +17°C° 0 mm 2 mps 717 mmHg 31%
01:00 +16°C° 0 mm 2 mps 717 mmHg 32%
02:00 +16°C° 0 mm 2 mps 717 mmHg 33%
03:00 +15°C° 0 mm 1 mps 717 mmHg 34%
04:00 +15°C° 0 mm 1 mps 717 mmHg 36%
05:00 +13°C° 0 mm 0 mps 717 mmHg 37%
06:00 +14°C° 0 mm 0 mps 718 mmHg 34%
07:00 +16°C° 0 mm 0 mps 718 mmHg 31%
08:00 +19°C° 0 mm 1 mps 718 mmHg 28%
09:00 +19°C° 0 mm 2 mps 719 mmHg 26%
10:00 +21°C° 0 mm 3 mps 719 mmHg 24%
11:00 +22°C° 0 mm 4 mps 719 mmHg 23%
12:00 +22°C° 0 mm 4 mps 719 mmHg 22%
13:00 +23°C° 0 mm 5 mps 718 mmHg 20%
14:00 +23°C° 0 mm 5 mps 718 mmHg 19%
15:00 +23°C° 0 mm 6 mps 718 mmHg 18%
16:00 +23°C° 0 mm 6 mps 718 mmHg 17%
17:00 +23°C° 0 mm 6 mps 718 mmHg 16%
18:00 +21°C° 0 mm 5 mps 718 mmHg 18%
19:00 +20°C° 0 mm 4 mps 718 mmHg 21%
20:00 +19°C° 0 mm 2 mps 718 mmHg 24%
21:00 +18°C° 0 mm 2 mps 717 mmHg 26%
22:00 +18°C° 0 mm 1 mps 717 mmHg 28%
23:00 +16°C° 0 mm 1 mps 717 mmHg 30%

19 April, Monday

Time Temperature Precipitation Wind Pressure Humidity
00:00 +16°C° 0 mm 1 mps 717 mmHg 30%
01:00 +16°C° 0 mm 1 mps 717 mmHg 31%
02:00 +15°C° 0 mm 1 mps 716 mmHg 31%
03:00 +15°C° 0 mm 1 mps 716 mmHg 31%
04:00 +15°C° 0 mm 2 mps 716 mmHg 31%
05:00 +15°C° 0 mm 2 mps 716 mmHg 31%
06:00 +16°C° 0 mm 3 mps 716 mmHg 30%
07:00 +16°C° 0 mm 3 mps 716 mmHg 29%
08:00 +17°C° 0 mm 4 mps 717 mmHg 28%
09:00 +19°C° 0 mm 4 mps 717 mmHg 27%
10:00 +20°C° 0 mm 4 mps 717 mmHg 25%
11:00 +21°C° 0 mm 5 mps 717 mmHg 23%
12:00 +22°C° 0 mm 5 mps 717 mmHg 24%
13:00 +22°C° 0 mm 6 mps 716 mmHg 24%
14:00 +23°C° 0 mm 7 mps 716 mmHg 25%
15:00 +23°C° 0 mm 6 mps 716 mmHg 25%
16:00 +23°C° 0 mm 6 mps 715 mmHg 25%
17:00 +23°C° 0 mm 5 mps 715 mmHg 24%
18:00 +21°C° 0 mm 4 mps 715 mmHg 28%
19:00 +20°C° 0 mm 3 mps 715 mmHg 31%
20:00 +19°C° 0 mm 2 mps 715 mmHg 34%
21:00 +19°C° 0 mm 2 mps 714 mmHg 35%
22:00 +18°C° 0 mm 2 mps 714 mmHg 36%
23:00 +18°C° 0 mm 2 mps 714 mmHg 37%

20 April, Tuesday

Time Temperature Precipitation Wind Pressure Humidity
00:00 +17°C° 0 mm 3 mps 713 mmHg 38%
01:00 +17°C° 0 mm 3 mps 713 mmHg 39%
02:00 +17°C° 0 mm 3 mps 713 mmHg 40%
03:00 +16°C° 0 mm 3 mps 713 mmHg 43%
04:00 +16°C° 0 mm 3 mps 713 mmHg 46%
05:00 +14°C° 0 mm 3 mps 713 mmHg 49%
06:00 +14°C° 0 mm 4 mps 713 mmHg 51%
07:00 +13°C° 0 mm 5 mps 713 mmHg 54%
08:00 +13°C° 0 mm 6 mps 714 mmHg 56%
09:00 +13°C° 0 mm 5 mps 714 mmHg 55%
10:00 +13°C° 0 mm 5 mps 714 mmHg 55%
11:00 +13°C° 0 mm 4 mps 714 mmHg 54%
12:00 +13°C° 0.4 mm 4 mps 714 mmHg 60%
13:00 +12°C° 0.4 mm 4 mps 714 mmHg 66%
14:00 +11°C° 0.4 mm 4 mps 714 mmHg 72%
15:00 +12°C° 0.1 mm 3 mps 714 mmHg 71%
16:00 +12°C° 0.1 mm 3 mps 715 mmHg 70%
17:00 +13°C° 0.1 mm 3 mps 715 mmHg 69%
18:00 +12°C° 0 mm 4 mps 715 mmHg 73%
19:00 +10°C° 0 mm 5 mps 715 mmHg 77%
20:00 +9°C° 0 mm 6 mps 716 mmHg 81%
21:00 +8°C° 0 mm 5 mps 716 mmHg 81%
22:00 +8°C° 0 mm 5 mps 716 mmHg 82%
23:00 +7°C° 0 mm 4 mps 716 mmHg 82%
Show more

We Need Your Consent

Meteoprog and our Service Providers may store and access personal data such as cookies, device identifiers or other similar technologies on your device and process such data to personalise content and ads, as well as provide social media features and to analyse the traffic.

  • Store and/or access information on your device

    Cookies, device identifiers or other information can be stored or accessed on your device for the purposes indicated above.

  • Personalised ads and content, ad and content measurement, audience insights, and products development

    Ads and content can be personalised based on a profile. More data can be added to better personalise ads and content. Ad and content performance can be measured. Insights about the audience who saw the ads and content can be derived. Such data can be used to develop or improve user’s experience, systems and software.

By clicking ‘I Agree’ you will allow the use of indicated cookies, device identifiers, web beacons or other similar technologies. Your settings can be changed in the browser on your device.

For certain purposes, legitimate interests may be relied on, rather than consent. You can read more about this in our Privacy and Cookie Policy.